Showing default

ICEYE-X5, 44389

Orbit data source: Space-Track

ICEYE-X5, 44389 is a payload satellite owned by ICEYE (FI) in SSO that was launched on Fri, 05 Jul 2019 UTC via a SOYUZ-2-1B launch vehicle from the Vostochny Cosmodrome (VOSTO). Payload-class satellites include a variety of spacecraft equipped with specific instruments for various scientific and technological missions. These include communications satellites like Starlink; space stations such as the ISS; scientific satellites like the Hubble; Earth observation satellites from companies like Planet Labs, Umbra, and HawkEye 360; GPS; miniature CubeSats for education and research; and military/defense satellites.

Loading next visibility...
Identifier
44389, 2019-038C
Orbit
SSO
Last TLE update
7 hours ago
Origin
Manufacturer
ICEYE
Mission
Non-operational Commercial Radar Imaging
Bus & Motor
ICEYE, Unknown motor
Mass
80 kg wet, 80 kg dry
Launch date (UTC)
2019-07-05 (6 years ago)
Launch vehicle
SOYUZ-2-1B
Launch site
Vostochny Cosmodrome (VOSTO)
Object type
Payload
Rocket body
Debris
Shape & HBR
Box + 1 Pan, 3.25 m
Radar Cross Section
1.837 m², Large (>1 m²)

Expand to show TLE details & history

TLE from 7 hours ago
0 ICEYE-X5
1 44389U 19038C   25182.13178875  .00013988  00000-0  44541-3 0  9997
2 44389  97.9126 202.8275 0011412  73.8879 286.3617 15.32633074328843
Epoch: 2025-07-01T03:09Z
TLE epoch observation values (Epoch: 2025-07-01T03:09:46.548Z)
Latitude
0.00001°
Longitude
-124.04809°
Altitude
468.859 km
Speed
7.633 km/s
True Right ascension
13h 31m 18s
True Declination
0° 00' 00"
Sunlit
Object was in daylight at epoch
Visualization orbit readout
Latitude
-80.88188°
Longitude
-64.26473°
Altitude
503.38 km
Speed
7.607 km/s
Apparent Right ascension
11h 07m 20s
Apparent Declination
-66° 43' 02"
Sunlit
Object is in full shadow
Visualization observer readout
Local Sidereal Time
22:15:59
Azimuth
190.871° SSW
Elevation
-62.252°
Doppler factor
1
Orbital elements
Apogee altitude
472.741 km
Perigee altitude
457.122 km
Semi-major axis
6,843.068 km
Eccentricity
0.00114
Inclination
97.9126°
RAAN
202.8275°
Arg. of periapsis
73.8879°
True anomaly
Unknown
Mean anomaly
286.3617°
Eccentric anomaly
Unknown
Mean motion
3.83413 °/min
Orbital period
93.89 mins
BSTAR
0.00044541
Loading maneuver chart data...
Loading SW <> Apogee altitude chart data...

ICEYE-X5 Visibility forecast

Observer location: undefined°, undefined°

Span
Click to sort rows by Start time (UTC) header in descending order
Start Az.
Max El. time (UTC)
Max El. Az.
Max El.
End time (UTC)
End Az.
5 mins2025-07-01 14:41:30.868Z352.04° N2025-07-01 14:43:30.868Z308.207° NW31.957°2025-07-01 14:46:30.868Z220.513° SW
5 mins2025-07-02 01:14:30.868Z150.531° SSE2025-07-02 01:16:30.868Z86.033° E41.16°2025-07-02 01:19:30.868Z356.009° N
|